Location: Isles
(48.9125°N, 2.8272°E)
Time: 11:34:59
(UTC+00:00)

Cosmos 407 Rocket - Pass Details

Date: 03 February 2023
Orbit: 742 x 785 km, 74.0° (Epoch: 25 March)

Event Time Altitude Azimuth Distance (km) Brightness Sun altitude
Rises 17:13:18 0° 191° (S) 3,189 7.2 -4.5°
Reaches altitude 10° 17:15:41 10° 188° (S) 2,264 6.4 -4.9°
Maximum altitude 17:20:44 63° 108° (ESE) 831 3.5 -5.7°
Drops below altitude 10° 17:25:48 10° 29° (NNE) 2,267 5.5 -6.5°
Sets 17:28:10 0° 26° (NNE) 3,194 6.3 -6.9°
